Theta_e
343 345 347 346 347 348 348 347 347 347 346 344 343 344 343 343 343 344 344 344 344 342 342 343 344 344 346 348 347 346 345 344 347 346 346 345 345 345 344 344 343 343 342 342 342 342 340 338 336 334 332 334
341 343 345 345 345 346 347 347 346 345 345 344 343 343 342 342 342 343 343 343 342 341 340 341 342 343 346 347 347 346 344 344 346 346 345 345 344 344 344 343 343 343 342 343 342 340 338 337 335 333 330 333
341 341 342 342 343 344 345 345 344 343 343 343 341 341 342 342 343 342 342 342 342 341 340 341 341 341 343 347 347 345 345 344 346 346 346 345 345 345 344 344 343 343 343 341 340 338 335 333 331 329 330 333
342 339 340 340 341 342 342 342 341 340 340 341 339 339 340 341 342 342 342 343 341 340 340 341 340 340 340 344 345 344 343 345 346 346 346 346 346 345 344 344 344 342 341 339 337 336 334 332 330 331 332 333
342 341 338 338 339 339 338 339 339 338 337 336 334 334 336 340 340 340 341 341 340 340 340 337 337 339 338 340 342 343 343 342 343 345 346 346 346 345 344 343 342 340 338 337 335 333 332 330 330 332 333 334
342 342 340 342 341 341 338 337 337 338 340 343 339 333 337 338 340 338 339 340 342 339 340 337 335 336 336 338 340 342 342 342 343 345 345 345 344 344 343 341 338 337 336 335 333 331 328 331 332 333 334 334
342 341 341 343 343 343 339 341 341 341 342 341 340 339 340 339 338 338 339 340 341 341 334 338 332 334 335 336 338 341 340 341 342 344 344 344 343 343 339 338 337 336 334 332 331 328 329 331 333 334 335 336
339 341 340 341 342 342 341 341 341 341 341 341 339 340 339 339 337 338 338 342 343 342 339 334 331 331 333 334 335 336 337 336 338 340 340 341 339 339 338 337 336 336 335 332 330 331 332 332 334 336 336 334
337 338 340 340 339 340 341 340 341 341 340 339 338 339 338 338 336 338 338 339 339 337 336 335 336 336 337 338 338 334 336 337 337 336 337 338 338 339 336 337 337 336 335 334 333 334 334 335 337 338 337 336
336 337 337 337 338 337 338 339 339 340 339 339 338 338 338 337 335 335 334 338 337 337 337 337 336 336 336 337 337 338 337 338 339 337 337 336 337 338 336 335 335 336 335 335 333 334 334 334 335 335 335 335
337 336 335 337 339 337 335 337 337 338 338 339 339 338 338 336 334 334 332 337 336 336 336 336 336 336 336 336 336 337 336 336 336 337 336 336 336 335 336 335 335 335 336 335 333 332 330 331 331 332 334 336
336 337 336 335 336 337 335 334 335 336 336 338 338 337 338 335 334 333 331 336 335 334 334 334 334 333 331 332 332 336 334 335 336 336 335 335 335 334 335 335 335 335 335 334 333 331 330 330 329 329 332 334
331 335 337 336 335 335 335 334 334 334 334 335 336 337 337 334 332 332 331 333 333 333 331 332 331 329 329 330 329 330 329 329 331 333 333 335 334 334 335 335 334 334 332 331 332 331 332 332 330 329 331 333
330 333 333 335 336 335 333 336 335 334 334 334 333 336 337 335 332 332 331 332 333 332 331 331 329 328 328 329 328 326 326 327 326 326 326 326 327 329 331 330 331 332 330 328 327 328 329 332 332 331 330 331
322 327 331 333 334 336 335 336 336 334 334 333 332 333 336 335 333 333 332 332 333 332 331 331 330 328 329 329 328 324 325 327 327 326 326 327 325 326 325 325 324 324 323 322 322 322 322 323 324 324 327 329
314 320 324 329 333 333 337 336 336 335 336 334 333 335 334 335 334 333 333 333 333 332 331 330 330 330 330 329 329 325 327 328 328 327 328 328 328 327 326 325 324 324 322 321 322 321 321 322 322 322 322 322
310 314 318 324 329 333 334 336 335 334 336 336 336 336 335 335 335 334 333 333 333 331 332 332 331 331 331 331 331 330 330 329 329 329 328 329 330 328 327 325 324 325 323 322 322 322 322 322 322 322 321 321
306 309 313 320 327 331 333 334 335 334 334 335 336 338 336 336 335 334 333 331 332 332 332 332 332 332 331 331 331 331 331 330 330 330 329 329 329 328 328 326 324 323 321 321 322 322 323 323 323 322 322 320
303 307 310 317 325 331 330 332 333 334 335 335 336 336 336 335 335 335 334 335 333 333 333 332 332 332 331 332 332 331 331 330 330 330 329 329 328 328 328 328 328 325 322 322 322 322 323 323 324 323 322 321
301 305 310 316 325 329 328 327 326 328 334 335 335 333 333 334 335 335 334 335 336 335 332 333 333 333 332 332 331 331 331 331 329 329 329 329 329 326 326 327 327 328 327 326 323 323 323 322 323 323 322 321
298 303 308 314 323 322 322 322 322 322 322 323 326 329 333 332 331 334 336 336 337 335 334 333 333 333 333 333 331 329 330 330 330 329 329 328 328 328 325 325 326 327 327 328 329 328 324 323 322 323 322 321
297 301 306 310 319 318 318 318 319 319 319 319 320 322 323 326 325 324 328 333 336 334 333 334 333 331 332 332 331 331 331 330 330 330 330 328 328 328 327 326 327 327 328 328 328 325 323 323 322 322 323 324
294 299 302 306 310 314 313 314 314 316 316 316 316 317 319 321 321 322 323 324 328 333 332 332 332 332 333 334 332 330 329 329 330 330 330 329 328 328 328 328 328 328 328 328 327 325 321 319 320 321 322 323
290 294 298 301 305 307 308 309 308 309 312 313 313 314 315 317 318 319 319 321 323 328 330 331 331 331 332 331 331 331 330 330 330 328 328 328 328 327 327 328 328 329 328 327 326 323 323 322 322 321 321 322
286 289 292 297 301 304 304 304 305 304 305 309 310 310 311 312 314 315 315 316 319 320 322 323 325 328 329 331 331 330 330 331 331 330 329 328 327 326 325 325 326 326 327 323 321 322 321 321 321 321 321 321
284 287 291 293 298 301 303 301 301 300 301 303 306 307 308 309 310 310 311 312 313 315 317 318 320 322 325 326 326 327 330 331 329 329 329 328 326 326 325 323 324 325 324 319 319 316 315 317 318 319 319 319
283 286 288 291 298 299 301 300 300 300 299 301 303 304 306 307 307 308 308 308 310 311 313 314 316 318 321 322 323 323 324 325 327 329 328 327 325 323 325 324 326 324 324 318 318 315 313 313 312 316 317 318
284 286 287 290 296 296 298 296 297 297 296 297 299 300 303 304 305 306 306 306 307 308 310 311 312 314 316 317 318 319 321 323 323 324 327 328 326 325 323 323 323 325 324 320 317 312 312 314 313 310 312 315
284 284 284 287 289 290 292 294 292 292 291 294 296 298 299 301 303 304 304 305 305 306 307 308 309 311 313 314 314 316 318 319 320 321 323 323 324 325 324 322 323 324 324 322 321 317 312 310 312 312 312 313
282 282 282 283 284 283 284 285 287 287 288 290 293 294 297 299 300 301 302 303 302 303 305 306 307 308 310 311 311 312 316 316 317 317 319 320 322 322 324 324 322 321 323 324 322 322 319 319 313 312 311 312
281 281 281 281 282 283 282 283 284 287 289 290 292 294 294 296 298 299 300 301 301 301 303 304 305 306 307 309 309 310 312 312 313 315 316 317 319 320 321 322 319 320 321 322 323 323 322 321 319 317 313 311
Wind_Speed
11 11 12 11 10 10 10 10 10 9 9 9 9 8 8 7 8 9 9 7 5 4 6 7 7 7 7 8 9 11 11 13 14 13 14 15 15 15 14 14 12 11 10 9 8 5 5 6 3 3 3 3
10 10 11 10 9 9 9 9 10 9 9 8 8 8 7 8 9 9 9 8 6 5 7 8 7 7 8 9 9 12 13 13 14 15 14 15 14 14 14 14 13 12 11 8 6 5 5 3 2 2 3 4
8 11 11 11 9 9 9 9 10 10 10 9 9 8 7 8 8 7 8 9 8 8 8 8 8 8 9 10 11 12 13 14 15 14 13 12 13 14 14 13 12 12 10 8 8 6 3 1 2 3 3 4
5 7 10 10 9 9 9 9 10 11 10 9 9 8 8 8 7 7 6 9 9 10 9 9 7 9 9 10 11 13 11 12 14 13 12 11 12 13 13 12 9 9 8 7 7 6 4 1 2 2 3 3
5 6 9 8 9 9 8 9 10 10 10 9 8 8 7 8 7 6 6 7 6 9 7 9 10 10 9 10 11 12 13 10 12 13 12 11 12 12 11 10 9 7 6 6 6 5 4 3 2 3 3 4
3 5 8 7 6 6 6 6 8 8 7 9 5 8 7 5 5 5 5 7 8 6 7 9 11 11 10 11 13 12 12 13 12 12 12 12 12 12 10 10 5 5 4 4 5 5 5 3 3 3 5 5
3 6 6 7 7 6 8 7 7 5 8 6 7 6 6 5 5 5 6 6 7 7 9 9 10 11 11 11 13 13 13 11 11 12 12 12 10 11 10 5 5 4 4 3 5 4 4 3 4 4 6 5
1 2 6 6 7 6 7 6 6 6 6 7 8 8 7 6 5 5 5 8 13 12 6 6 9 10 10 10 10 9 7 6 8 9 10 10 10 7 7 6 5 5 5 5 4 4 4 4 4 5 5 3
4 2 3 5 6 6 6 6 6 6 7 6 7 8 7 7 6 6 5 7 6 6 5 5 3 6 5 5 6 10 7 6 6 3 3 5 6 4 6 4 5 6 6 5 5 5 5 5 5 5 5 2
6 3 3 5 5 5 6 7 7 7 7 7 8 7 8 8 8 6 5 7 7 7 7 6 5 4 4 5 5 5 6 5 7 8 7 6 5 5 6 4 2 4 4 4 5 5 6 6 5 6 4 3
5 5 7 5 4 5 6 7 7 8 7 8 8 8 7 7 7 8 6 7 6 7 7 8 8 7 8 7 7 6 5 6 6 6 6 7 6 5 3 5 4 4 5 4 3 4 4 4 4 3 3 2
6 5 7 6 5 6 6 6 7 8 8 7 8 8 8 7 7 8 6 8 8 6 6 8 8 7 7 7 7 7 7 7 7 7 6 7 7 7 7 6 5 5 5 5 4 3 2 1 1 2 2 2
6 7 4 6 7 5 4 6 7 7 7 7 7 7 8 7 8 7 7 9 8 7 6 6 6 6 6 6 6 7 7 7 8 8 7 7 8 8 7 6 6 5 5 6 5 5 4 4 3 3 3 3
8 5 6 5 3 7 6 5 7 9 7 7 6 7 6 8 6 7 7 7 8 8 7 7 5 5 5 7 6 7 7 7 6 8 7 7 7 8 8 7 7 7 6 6 5 5 5 5 6 6 5 4
10 9 8 7 5 5 7 7 6 7 7 6 7 7 8 8 6 7 6 6 7 8 8 8 8 7 6 7 6 8 7 6 6 6 6 5 5 5 5 6 5 7 6 4 3 3 3 4 4 5 6 6
10 10 10 8 6 6 5 7 8 8 7 7 5 5 6 7 7 5 7 6 7 8 7 7 9 8 8 8 6 8 6 7 6 6 6 6 5 4 4 4 5 4 4 4 4 4 4 3 2 3 3 3
10 10 10 9 7 6 7 6 2 3 2 1 2 3 5 6 6 4 6 5 8 7 7 6 7 7 7 8 7 8 7 7 7 5 5 6 6 6 6 6 5 5 5 4 5 4 4 4 4 4 3 4
9 9 9 9 8 6 7 5 5 3 3 2 1 1 4 8 6 6 4 5 7 6 7 7 6 7 6 6 7 7 9 7 8 7 6 6 7 6 7 7 7 6 6 6 5 6 6 6 6 5 5 5
11 10 10 10 8 5 5 6 5 4 3 4 3 3 1 1 6 8 4 2 3 7 6 7 7 8 6 6 5 6 7 7 7 7 6 6 6 5 6 4 4 7 7 6 6 5 4 6 6 6 6 7
10 9 9 9 9 7 9 8 10 10 7 4 3 3 3 4 2 2 4 4 1 3 3 6 7 7 7 7 7 7 6 6 6 6 6 6 7 6 6 5 3 2 5 6 7 7 6 6 6 6 6 7
11 10 9 9 10 10 10 11 10 10 11 12 11 10 2 4 5 5 4 3 3 2 6 6 6 6 7 5 6 6 6 7 6 6 6 6 7 8 6 6 5 3 4 3 3 5 8 7 7 7 7 6
10 9 9 10 8 11 11 12 10 10 10 10 9 8 7 8 10 9 8 5 6 3 3 4 6 3 4 5 4 5 6 8 7 6 6 6 6 7 7 7 7 6 5 4 4 3 0 3 5 5 2 2
11 9 8 8 11 12 12 11 11 10 11 10 10 10 11 12 11 11 11 12 9 6 3 3 5 6 1 2 0 2 2 3 4 5 5 6 6 4 6 8 8 6 5 5 4 3 2 1 3 1 1 2
11 10 9 9 12 12 12 10 11 11 11 10 11 12 12 13 12 11 11 12 11 8 3 2 2 2 4 2 2 2 4 6 6 7 7 5 5 6 5 5 5 6 6 5 5 5 3 3 3 4 3 3
11 12 12 7 9 8 8 9 9 11 11 11 10 12 12 12 11 12 12 10 7 7 7 9 10 10 8 6 3 4 5 6 8 9 8 8 8 8 6 5 5 5 5 5 4 4 5 4 4 5 4 5
9 8 7 6 6 7 6 9 10 11 11 11 11 12 12 11 10 10 9 9 10 11 12 13 11 9 7 6 4 3 2 4 5 5 7 7 7 7 9 7 8 8 8 6 8 5 3 4 3 5 5 6
10 10 10 7 5 7 5 7 7 8 9 10 10 10 10 11 11 11 11 13 11 10 12 11 8 8 7 7 5 6 7 8 7 6 7 8 8 8 7 7 8 10 11 7 7 4 2 4 4 4 4 1
12 12 11 9 5 7 5 6 6 7 9 11 13 12 11 12 12 12 12 12 11 10 11 11 11 9 8 9 9 8 9 10 9 10 6 5 6 3 4 6 6 9 11 7 9 6 7 4 4 2 7 5
13 12 12 10 6 5 7 8 11 12 14 13 11 11 14 14 13 12 12 12 12 10 11 11 10 9 8 9 10 9 9 8 8 8 8 10 7 3 4 6 5 4 9 9 10 7 4 3 5 6 4 6
12 12 12 13 14 14 12 11 13 14 13 13 13 12 10 12 13 13 12 11 12 12 10 11 10 9 10 10 9 10 8 7 7 8 9 9 7 8 7 3 2 3 3 6 8 8 5 3 2 4 4 7
13 13 12 14 12 11 10 10 8 8 8 8 9 9 11 10 11 12 12 12 12 12 11 10 10 9 9 9 9 9 8 9 9 8 9 9 8 8 7 7 3 3 3 4 5 5 7 7 3 2 7 5
Wind_Direction
161 160 161 168 169 173 174 172 168 165 169 169 175 190 188 167 155 160 163 171 174 155 164 157 162 171 180 194 183 176 168 176 158 161 161 158 157 153 148 148 152 158 163 164 163 172 192 215 233 238 359 298
159 160 162 170 167 174 174 173 172 169 170 171 173 182 182 170 166 164 166 173 171 166 165 169 169 171 183 196 179 179 168 183 162 164 165 162 158 154 151 152 155 159 162 154 151 166 205 234 309 346 348 284
165 163 164 169 169 171 172 175 172 172 171 172 171 176 173 173 169 168 171 170 164 169 166 170 172 177 188 193 178 183 174 183 165 167 167 164 161 158 156 157 157 157 154 149 149 150 176 335 19 339 308 283
161 163 161 164 168 169 171 173 173 171 170 170 168 170 172 169 161 165 165 166 165 166 168 171 174 186 193 187 175 183 185 183 168 170 170 167 165 164 161 157 154 151 147 143 146 153 163 186 359 304 254 272
163 162 158 162 165 171 172 171 171 169 166 164 163 165 169 169 173 175 173 170 167 167 168 176 183 186 189 179 174 182 188 185 179 174 172 169 169 165 159 154 142 136 133 132 135 140 162 162 205 256 264 247
178 162 168 167 168 170 172 173 169 166 168 174 162 164 160 178 180 186 177 178 173 171 173 178 181 179 181 178 175 180 194 177 189 178 175 171 169 164 153 138 125 112 109 116 121 138 148 174 208 238 248 244
199 173 181 172 174 177 174 179 181 177 177 177 172 172 168 186 190 191 181 174 173 182 169 171 175 171 179 180 179 176 188 187 185 177 173 169 172 153 132 140 132 133 138 134 138 136 159 210 224 218 241 246
271 204 179 186 177 183 179 172 180 188 190 183 180 178 175 180 196 184 179 176 181 181 150 149 156 155 162 174 168 156 156 169 189 176 167 167 181 171 157 173 162 152 160 151 168 182 194 212 229 229 238 229
261 253 218 205 186 185 184 178 183 197 190 196 189 179 181 183 180 188 181 162 157 146 151 137 137 148 150 153 158 166 169 166 153 144 223 174 188 180 168 198 165 154 164 171 174 184 186 197 220 237 244 189
236 238 256 234 222 196 184 186 185 200 190 197 194 187 186 182 175 184 172 160 160 160 154 160 161 173 167 158 163 183 156 173 159 177 186 161 192 211 169 218 181 161 193 202 185 189 193 199 203 213 220 192
216 207 224 231 238 221 198 187 190 199 199 196 194 189 190 183 180 173 178 165 169 171 167 166 166 179 174 176 177 180 179 178 172 182 169 169 184 191 204 201 207 188 184 203 209 213 204 202 219 216 214 250
342 221 213 224 238 248 223 197 196 200 204 196 197 192 189 187 186 176 171 170 171 183 179 175 172 175 177 171 171 174 184 179 180 188 184 180 182 184 195 198 192 185 186 192 196 212 231 222 252 225 188 203
341 344 293 217 236 243 245 223 201 197 205 202 199 197 192 187 187 179 182 168 174 178 180 175 174 176 180 173 172 171 200 175 175 185 188 188 188 185 185 183 188 188 191 191 189 191 213 216 222 240 246 244
341 336 347 356 279 245 242 250 213 187 198 205 197 194 200 194 191 186 189 169 171 174 181 167 177 179 192 176 174 173 196 181 174 180 189 178 175 170 177 178 181 184 197 195 191 191 190 190 204 213 217 230
344 346 347 335 339 307 234 216 241 201 194 203 192 193 197 194 198 181 187 171 169 177 189 171 175 180 190 178 183 179 192 176 178 176 185 175 167 166 160 168 168 169 178 184 193 194 188 200 201 204 199 205
345 344 339 328 328 349 304 226 208 191 193 195 192 181 191 200 201 180 186 179 177 180 191 176 174 178 180 178 188 178 189 172 179 181 185 169 167 166 160 164 170 172 165 187 197 202 219 217 234 246 243 222
344 341 334 325 335 340 342 326 275 227 223 241 220 179 211 211 203 197 186 195 182 179 187 180 175 183 182 176 181 171 185 168 182 189 189 177 169 170 164 167 176 170 180 182 196 201 212 201 217 232 248 256
340 340 331 324 323 342 337 344 341 282 265 260 297 318 229 204 206 207 218 197 188 183 181 184 179 189 189 183 179 169 176 178 175 183 182 176 169 175 171 177 175 173 184 190 193 194 194 191 202 206 226 234
336 333 334 325 319 346 342 353 7 322 282 256 232 218 326 238 194 204 236 282 199 188 181 186 186 184 184 179 179 174 174 171 169 168 180 164 173 180 181 176 185 173 178 182 194 211 195 190 194 195 205 214
329 327 325 332 335 19 24 28 31 16 341 294 277 230 212 331 318 240 221 244 239 255 246 190 188 186 178 180 185 178 178 170 177 183 183 182 170 169 186 183 219 211 195 189 187 194 201 201 194 200 210 205
336 339 332 338 17 24 30 32 25 35 28 18 22 6 9 53 9 350 329 309 282 176 248 241 192 183 178 183 173 178 176 181 182 186 189 194 180 169 171 175 195 227 232 233 227 196 195 196 195 203 207 201
331 330 340 352 6 26 31 29 30 30 38 28 12 21 9 46 47 30 19 353 293 296 223 282 293 223 197 163 168 174 167 182 178 183 187 190 185 172 164 175 178 193 206 221 234 252 159 205 180 189 216 212
346 333 355 360 13 24 24 22 20 23 36 31 22 8 19 25 36 34 28 20 352 259 294 276 277 295 331 80 132 245 230 228 198 191 179 179 181 178 175 169 175 183 197 207 217 221 228 310 290 268 282 321
355 356 1 360 7 23 21 16 18 18 24 28 28 13 16 26 26 28 32 23 13 4 68 324 315 295 338 310 289 269 196 197 203 215 201 214 198 184 176 165 157 178 191 200 199 200 223 247 250 274 295 294
357 359 351 359 12 8 22 10 15 23 15 21 23 17 17 29 26 22 29 26 1 24 42 55 25 19 10 345 306 253 228 218 217 211 210 197 186 188 192 199 187 192 177 176 188 174 193 220 246 252 241 244
350 351 354 336 335 347 16 11 17 18 14 9 14 15 18 22 28 31 34 29 12 24 31 38 28 23 348 354 357 358 329 246 245 264 235 209 207 194 189 201 192 200 174 193 192 180 208 213 212 219 224 228
354 342 339 338 339 351 14 26 22 25 14 5 11 15 14 18 23 26 27 25 20 23 34 40 25 19 3 340 354 13 28 20 354 252 230 215 199 195 199 196 190 195 191 188 180 168 134 202 200 209 225 242
350 347 339 337 344 10 23 28 17 29 19 10 13 14 5 20 20 18 26 26 21 21 31 41 31 10 11 356 1 11 19 17 10 359 323 268 229 174 202 201 202 191 191 173 150 194 204 182 170 201 203 178
355 356 359 357 3 23 21 20 18 18 13 9 7 5 10 10 12 16 18 21 23 20 24 33 31 18 3 12 6 9 21 23 4 348 349 0 350 307 221 220 228 224 193 190 181 159 141 209 213 216 157 154
4 11 12 11 17 14 11 13 15 15 3 352 1 4 353 3 9 12 16 19 19 19 17 29 26 20 10 15 11 8 12 16 7 356 357 355 348 351 340 286 220 251 282 224 194 193 181 158 176 195 163 155
9 16 20 23 23 25 19 14 8 8 360 355 353 353 2 2 8 11 13 15 17 13 12 26 25 22 13 13 13 7 11 13 5 356 353 346 354 348 345 349 310 270 252 234 243 228 236 250 219 144 143 197